Satellite: HORYU-2 Catalog number: 38340 Epoch time: 14142.87835293 Element set: 859 Inclination: 098.2613 deg RA of node: 099.6541 deg Eccentricity: 0.0011190 Arg of perigee: 257.5627 deg Mean anomaly: 102.4322 deg Mean motion: 14.72478164 rev/day Decay rate: 1.739e-05 rev/day^2 Epoch rev: 10807 Checksum: 311
Satellite: RS-40 Catalog number: 38735 Epoch time: 14141.55289793 Element set: 574 Inclination: 082.4742 deg RA of node: 304.1501 deg Eccentricity: 0.0016342 Arg of perigee: 315.2055 deg Mean anomaly: 044.7705 deg Mean motion: 12.42559373 rev/day Decay rate: 2.4e-07 rev/day^2 Epoch rev: 8227 Checksum: 287
Satellite: PROITERES Catalog number: 38756 Epoch time: 14142.81944839 Element set: 853 Inclination: 098.2288 deg RA of node: 230.6979 deg Eccentricity: 0.0013870 Arg of perigee: 105.3979 deg Mean anomaly: 254.8763 deg Mean motion: 14.74941059 rev/day Decay rate: 4.98e-06 rev/day^2 Epoch rev: 9144 Checksum: 356
Satellite: BEESAT-3 Catalog number: 39134 Epoch time: 14142.20543081 Element set: 592 Inclination: 064.8748 deg RA of node: 220.7726 deg Eccentricity: 0.0025534 Arg of perigee: 312.3724 deg Mean anomaly: 047.5219 deg Mean motion: 15.05083397 rev/day Decay rate: 6.165e-05 rev/day^2 Epoch rev: 5975 Checksum: 300
Satellite: BEESAT-2 Catalog number: 39136 Epoch time: 14141.72730547 Element set: 577 Inclination: 064.8748 deg RA of node: 222.6817 deg Eccentricity: 0.0025737 Arg of perigee: 312.2782 deg Mean anomaly: 047.6087 deg Mean motion: 15.04493703 rev/day Decay rate: 5.416e-05 rev/day^2 Epoch rev: 5967 Checksum: 323
Satellite: LO-75 Catalog number: 39382 Epoch time: 14142.64162974 Element set: 240 Inclination: 040.4968 deg RA of node: 248.3964 deg Eccentricity: 0.0018303 Arg of perigee: 051.4301 deg Mean anomaly: 308.7291 deg Mean motion: 15.42034277 rev/day Decay rate: 6.7025e-04 rev/day^2 Epoch rev: 2811 Checksum: 295
Satellite: ZACUBE-1 Catalog number: 39417 Epoch time: 14142.85268899 Element set: 303 Inclination: 097.7758 deg RA of node: 214.3433 deg Eccentricity: 0.0061600 Arg of perigee: 326.7508 deg Mean anomaly: 032.9819 deg Mean motion: 14.78052138 rev/day Decay rate: 1.283e-05 rev/day^2 Epoch rev: 2695 Checksum: 321
Satellite: TRITON-1 Catalog number: 39427 Epoch time: 14142.71710403 Element set: 157 Inclination: 097.7644 deg RA of node: 210.5474 deg Eccentricity: 0.0118016 Arg of perigee: 332.1571 deg Mean anomaly: 027.3349 deg Mean motion: 14.65353632 rev/day Decay rate: 1.257e-05 rev/day^2 Epoch rev: 2666 Checksum: 283
Satellite: DELFIN3XT Catalog number: 39428 Epoch time: 14142.26157905 Element set: 160 Inclination: 097.7614 deg RA of node: 209.4425 deg Eccentricity: 0.0128032 Arg of perigee: 335.3166 deg Mean anomaly: 024.1917 deg Mean motion: 14.63231837 rev/day Decay rate: 2.042e-05 rev/day^2 Epoch rev: 2654 Checksum: 281
Satellite: GOMX-1 Catalog number: 39430 Epoch time: 14142.75659857 Element set: 492 Inclination: 097.7595 deg RA of node: 208.1642 deg Eccentricity: 0.0156544 Arg of perigee: 338.0816 deg Mean anomaly: 021.3691 deg Mean motion: 14.56792337 rev/day Decay rate: 1.108e-05 rev/day^2 Epoch rev: 2651 Checksum: 320
Satellite: MO-76 Catalog number: 39436 Epoch time: 14142.71424904 Element set: 213 Inclination: 097.7798 deg RA of node: 216.7284 deg Eccentricity: 0.0025100 Arg of perigee: 335.9204 deg Mean anomaly: 024.0453 deg Mean motion: 14.89722761 rev/day Decay rate: 1.3706e-04 rev/day^2 Epoch rev: 2708 Checksum: 305
Satellite: LO-74 Catalog number: 39440 Epoch time: 14141.84342511 Element set: 154 Inclination: 097.7703 deg RA of node: 211.9223 deg Eccentricity: 0.0083574 Arg of perigee: 331.1520 deg Mean anomaly: 028.5032 deg Mean motion: 14.73004887 rev/day Decay rate: 1.524e-05 rev/day^2 Epoch rev: 2670 Checksum: 273
Satellite: PUCPSAT-1 Catalog number: 39442 Epoch time: 14141.90697650 Element set: 152 Inclination: 097.7797 deg RA of node: 215.6478 deg Eccentricity: 0.0034173 Arg of perigee: 333.8532 deg Mean anomaly: 026.0911 deg Mean motion: 14.85996705 rev/day Decay rate: 2.691e-05 rev/day^2 Epoch rev: 2572 Checksum: 324
Satellite: LITSAT-1 Catalog number: 39568 Epoch time: 14141.68969853 Element set: 201 Inclination: 051.6199 deg RA of node: 218.3520 deg Eccentricity: 0.0010228 Arg of perigee: 331.9458 deg Mean anomaly: 028.2795 deg Mean motion: 16.31113353 rev/day Decay rate: 8.718479e-02 rev/day^2 Epoch rev: 1293 Checksum: 323
Satellite: LITUANSAT Catalog number: 39569 Epoch time: 14142.66187034 Element set: 258 Inclination: 051.6444 deg RA of node: 219.4594 deg Eccentricity: 0.0007993 Arg of perigee: 327.9387 deg Mean anomaly: 154.8169 deg Mean motion: 15.72814122 rev/day Decay rate: 1.51125e-03 rev/day^2 Epoch rev: 1300 Checksum: 311
Satellite: SHINAISAT Catalog number: 39572 Epoch time: 14142.19034501 Element set: 116 Inclination: 065.0115 deg RA of node: 133.0662 deg Eccentricity: 0.0015968 Arg of perigee: 290.1611 deg Mean anomaly: 069.7820 deg Mean motion: 15.67393572 rev/day Decay rate: 4.1934e-04 rev/day^2 Epoch rev: 1303 Checksum: 272
Satellite: OPUSAT Catalog number: 39575 Epoch time: 14142.21170158 Element set: 138 Inclination: 065.0095 deg RA of node: 130.0434 deg Eccentricity: 0.0014568 Arg of perigee: 311.7957 deg Mean anomaly: 048.1955 deg Mean motion: 15.80820900 rev/day Decay rate: 1.38316e-03 rev/day^2 Epoch rev: 1309 Checksum: 281
Satellite: TEIKYOSAT Catalog number: 39576 Epoch time: 14142.21311870 Element set: 121 Inclination: 065.0120 deg RA of node: 132.1790 deg Eccentricity: 0.0014580 Arg of perigee: 308.4328 deg Mean anomaly: 051.5516 deg Mean motion: 15.70343313 rev/day Decay rate: 5.3501e-04 rev/day^2 Epoch rev: 1305 Checksum: 235
Satellite: IFT-1 Catalog number: 39577 Epoch time: 14142.89134303 Element set: 128 Inclination: 065.0117 deg RA of node: 128.5697 deg Eccentricity: 0.0013991 Arg of perigee: 310.9796 deg Mean anomaly: 049.0130 deg Mean motion: 15.75999168 rev/day Decay rate: 9.2370e-04 rev/day^2 Epoch rev: 1318 Checksum: 321
Satellite: CO-77 Catalog number: 39578 Epoch time: 14137.79435183 Element set: 185 Inclination: 064.9698 deg RA of node: 141.4483 deg Eccentricity: 0.0010610 Arg of perigee: 288.0688 deg Mean anomaly: 072.6747 deg Mean motion: 16.37966192 rev/day Decay rate: 4.930316e-02 rev/day^2 Epoch rev: 1246 Checksum: 359
Satellite: STARS-II Catalog number: 39579 Epoch time: 14116.06110564 Element set: 132 Inclination: 064.9886 deg RA of node: 219.0071 deg Eccentricity: 0.0013010 Arg of perigee: 293.8065 deg Mean anomaly: 069.6132 deg Mean motion: 16.44611049 rev/day Decay rate: 2.0186783e-01 rev/day^2 Epoch rev: 902 Checksum: 288
Satellite: KICKSAT Catalog number: 39685 Epoch time: 14133.79926973 Element set: 83 Inclination: 051.6478 deg RA of node: 260.9431 deg Eccentricity: 0.0011364 Arg of perigee: 321.6786 deg Mean anomaly: 038.9487 deg Mean motion: 16.39478651 rev/day Decay rate: 1.0230793e-01 rev/day^2 Epoch rev: 399 Checksum: 349
/EX
participants (1)
-
Ray Hoad